Simultaneous Nadir Overpasses (SNOs) Predictions

Prediction of SNOs between GOES-16 and TERRA Satellite Orbit:

Table of predicted SNOs for the next 14.0 days since TLE Epoch: 8/8/2025
Index Date Time (GOES-16) GOES-16 Lat,Lon TERRA Lat,Lon Distance(km) Time Diff (sec)
1 08/09/2025 04:06:44 0.01,-104.71 0.43,-102.67 232.58 80
2 08/09/2025 16:28:50 -0.00,-104.75 0.56,-107.40 300.54 80
3 08/11/2025 16:06:56 -0.01,-104.76 -0.43,-102.77 226.23 80
4 08/12/2025 04:29:12 0.00,-104.72 -0.57,-107.54 319.49 80
5 08/14/2025 04:07:17 0.01,-104.72 0.37,-102.89 207.33 80
6 08/14/2025 16:29:23 -0.00,-104.76 0.60,-107.63 325.75 80
7 08/16/2025 16:07:28 -0.00,-104.76 -0.36,-102.99 200.83 80
8 08/17/2025 04:29:43 -0.00,-104.72 -0.63,-107.76 344.95 80
9 08/19/2025 04:07:48 0.00,-104.72 0.34,-103.12 181.32 80
10 08/19/2025 16:29:53 0.01,-104.75 0.67,-107.85 351.90 80
11 08/21/2025 16:07:58 -0.00,-104.75 -0.32,-103.21 174.91 80
12 08/22/2025 04:30:14 -0.01,-104.72 -0.66,-107.98 370.47 80
